This is the latest recevied weather packets stored in our database for station/object NK7E. If no packets are shown the sender has not sent any weather packets the latest 1 day(s).
| Time | Temp. | Humidity | Pressure | Rain* | Wind** | Luminosity | Snow |
|---|---|---|---|---|---|---|---|
| 1777986317 | 14.44° C | 86% | 1011.8 hPa | 0 mm | 0.45 m/s, 0° | 16 W/m² | - |
| 1777985117 | 14.44° C | 86% | 1011.5 hPa | 0.25 mm | 0.89 m/s, 45° | 2 W/m² | - |
| 1777983917 | 14.44° C | 83% | 1011.4 hPa | 0.51 mm | 0.45 m/s, 0° | 0 W/m² | - |
| 1777982717 | 13.89° C | 85% | 1011.1 hPa | 0.51 mm | 1.34 m/s, 45° | 0 W/m² | - |
| 1777982117 | 13.89° C | 85% | 1011.1 hPa | 0.25 mm | 1.34 m/s, 45° | 0 W/m² | - |
| 1777981517 | 13.89° C | 84% | 1011.1 hPa | 0.25 mm | 1.34 m/s, 90° | 0 W/m² | - |
| 1777980917 | 13.89° C | 85% | 1011.4 hPa | 0 mm | 1.34 m/s, 90° | 0 W/m² | - |
| 1777980317 | 13.89° C | 84% | 1011.4 hPa | 0 mm | 0.89 m/s, 90° | 0 W/m² | - |
| 1777979717 | 13.89° C | 86% | 1011.3 hPa | 0.25 mm | 1.34 m/s, 45° | 0 W/m² | - |
| 1777979117 | 13.89° C | 87% | 1011.5 hPa | 0.51 mm | 2.24 m/s, 68° | 0 W/m² | - |
| 1777978517 | 13.89° C | 90% | 1011.7 hPa | 0.51 mm | 1.79 m/s, 68° | 0 W/m² | - |
| 1777977917 | 13.89° C | 90% | 1011.8 hPa | 0.51 mm | 1.34 m/s, 90° | 0 W/m² | - |
| 1777977317 | 13.89° C | 91% | 1011.1 hPa | 0.76 mm | 2.24 m/s, 68° | 0 W/m² | - |
| 1777976717 | 13.89° C | 91% | 1011.9 hPa | 1.02 mm | 2.24 m/s, 90° | 0 W/m² | - |
| 1777976117 | 13.89° C | 91% | 1012.6 hPa | 1.02 mm | 1.79 m/s, 90° | 0 W/m² | - |
| 1777975517 | 13.89° C | 91% | 1012.6 hPa | 0.76 mm | 2.24 m/s, 90° | 0 W/m² | - |
| 1777974917 | 13.89° C | 91% | 1012.7 hPa | 1.02 mm | 2.68 m/s, 90° | 0 W/m² | - |
| 1777974317 | 13.89° C | 91% | 1012.6 hPa | 1.02 mm | 2.68 m/s, 90° | 0 W/m² | - |
| 1777973717 | 13.89° C | 91% | 1012.8 hPa | 0.76 mm | 2.68 m/s, 90° | 0 W/m² | - |
| 1777973117 | 13.89° C | 91% | 1012.9 hPa | 0.76 mm | 3.58 m/s, 90° | 0 W/m² | - |
| 1777972517 | 14.44° C | 90% | 1012.9 hPa | 0.51 mm | 3.13 m/s, 90° | 0 W/m² | - |
| 1777971917 | 13.89° C | 90% | 1012.9 hPa | 0.76 mm | 4.47 m/s, 68° | 0 W/m² | - |
| 1777971317 | 14.44° C | 90% | 1013.1 hPa | 1.02 mm | 3.13 m/s, 90° | 0 W/m² | - |
| 1777970717 | 14.44° C | 90% | 1013.5 hPa | 1.27 mm | 2.68 m/s, 90° | 0 W/m² | - |
| 1777970117 | 14.44° C | 89% | 1014 hPa | 1.52 mm | 2.24 m/s, 68° | 0 W/m² | - |
* Rain latest hour (hover to see other rain measurements)
** Current wind speed in m/s (hover to see current wind gust speed)